LKW-2 (43080 NORAD) Tracking and Keplerian Element Data

This shows tracking and keplerian element data for the satellite.

Feedback or suggestion? Click here.




ElementValue
Catalog43080
NameLKW-2
Epoch Orbit452
Epoch Day21.86479383
Epoch Year2018
RAAN99.8658
Inclination97.4579
Eccentricity0.0011577
Argument of Perigee154.4368
Mean Anonmoly310.4137
Mean Motion15.23355817
Decay Rate-7.1E-07
L11 43080U 17084A 18021.86479383 -.00000071 00000-0 00000+0 0 9993
L22 43080 97.4579 99.8658 0011577 154.4368 310.4137 15.23355817 4525

Live tracking and technical data element details for LKW-2 (NORAD 43080). LKW-2 can be tracked NOW for your location showing map with azimuth and elevation plus other details from your city location.

Track the satellite on the map from your city or location and see movement details for azimuth, elevation, latitude, longitude, range, height, and movement on the map or in text.







IsCatalogInMostPopularTable: catalog: 43080, numindb: 135
Update: records affected: 1



GetName: 43080 LKW-2

Hit Count: updated at: Wed, 14 Nov 2018 11:33:09 GMT